{"data":{"norad_id":59235,"epoch":"2026-05-25T04:09:37.249056Z","epoch_age_seconds":66958,"freshness":"FRESH","line1":"1 59235U 24049E   26145.17334779  .00000338  00000+0  21802-4 0  9992","line2":"2 59235  43.0017  71.5661 0000710 270.0979  89.9791 15.27573627124105","mean_motion":15.27573627,"eccentricity":7.1e-5,"inclination_deg":43.0017,"raan_deg":71.5661,"arg_perigee_deg":270.0979,"mean_anomaly_deg":89.9791,"bstar":2.1802e-5,"rev_number":12410,"period_min":94.267141992233,"perigee_km":482.58103359295,"apogee_km":483.55532472839,"semimajor_km":6861.2051791607,"source":"CELESTRAK","updated_at":"2026-05-25T13:38:18.869764Z"}}